This demonstration page uses our WeatherBlox Daily Observations layout. Learn more.

Left ArrowRight Arrow

38.89511, -77.03637

Hourly Observations for April 8, 2019

Temp ( °F °C ) Dew Point ( °F °C ) Humidity (%) Winds ( mph kmh ) Pressure ( in mb ) Visibility ( mi km ) Precip ( " mm )
12:52 am 00:52 Cloudy with Light Rain 61 16.1 51 10.6 70 70 SSW 5 7 30.04 1017 10 16 0.00 0.03
1:52 am 01:52 Cloudy 60 15.6 52 11.1 75 75 S 5 7 29.99 1016 10 16 0.01 0.25
2:52 am 02:52 Cloudy 60 15.6 53 11.7 78 78 SSW 5 7 29.97 1015 10 16 0.00 0.00
3:52 am 03:52 Cloudy 61 16.1 54 12.2 78 78 S 7 11 29.94 1014 10 16 0.00 0.00
4:52 am 04:52 Cloudy 63 17.2 56 13.3 78 78 SSW 8 13 29.93 1013 10 16 0.00 0.00
5:52 am 05:52 Mostly Cloudy 61 16.1 56 13.3 84 84 S 7 11 29.92 1013 10 16 0.00 0.00
6:52 am 06:52 Partly Cloudy 61 16.1 56 13.3 84 84 S 8 13 29.93 1014 10 16 0.00 0.00
7:52 am 07:52 Partly Cloudy 62 16.7 57 13.9 84 84 S 9 15 29.93 1014 10 16 0.00 0.00
8:52 am 08:52 Mostly Cloudy 67 19.4 59 15 76 76 S 8 13 29.91 1013 10 16 0.00 0.00
9:52 am 09:52 Partly Cloudy 72 22.2 60 15.6 66 66 SSW 12 19 29.90 1013 10 16 0.00 0.00
10:52 am 10:52 Mostly Cloudy 69 20.6 59 15 70 70 S 13 20 29.89 1012 10 16 0.00 0.00
11:52 am 11:52 Mostly Cloudy 73 22.8 60 15.6 64 64 S 8 13 29.87 1012 10 16 0.00 0.00
12:52 pm 12:52 Mostly Cloudy 83 28.3 57 13.9 41 41 W 17 28 29.84 1010 10 16 0.00 0.00
1:52 pm 13:52 Mostly Cloudy 83 28.3 57 13.9 41 41 W 12 19 29.82 1010 10 16 0.00 0.00
2:52 pm 14:52 Mostly Cloudy 82 27.8 58 14.4 44 44 SW 17 28 29.81 1010 10 16 0.00 0.00
3:52 pm 15:52 Mostly Cloudy 83 28.3 55 12.8 38 38 WSW 16 26 29.78 1008 10 16 0.00 0.00
4:52 pm 16:52 Cloudy with Light Rain 82 27.8 54 12.2 38 38 W 12 19 29.77 1008 10 16 0.00 0.03
5:52 pm 17:52 Cloudy with Light Rain 73 22.8 58 14.4 59 59 WSW 10 17 29.78 1009 10 16 0.01 0.25
6:39 pm 18:39 Cloudy with Nearby Thunderstorms 69 20.6 61 16.1 76 76 SW 9 15 29.81 1009 10 16 0.01 0.25
6:52 pm 18:52 Cloudy with Nearby Thunderstorms 66 18.9 60 15.6 81 81 S 7 11 29.79 1009 10 16 0.01 0.25
7:06 pm 19:06 Cloudy with Thunderstorms 66 18.9 60 15.6 81 81 SSW 6 9 29.79 1009 10 16 0.00 0.03
7:46 pm 19:46 Cloudy 64 18 59 15 83 83 S 8 13 29.79 1009 10 16 0.00 0.03
7:52 pm 19:52 Cloudy 65 18.3 60 15.6 84 84 S 13 20 29.80 1009 10 16 0.00 0.03
8:52 pm 20:52 Cloudy 65 18.3 61 16.1 87 87 S 8 13 29.78 1009 10 16 0.00 0.03
9:52 pm 21:52 Cloudy 64 17.8 60 15.6 87 87 S 8 13 29.78 1009 10 16 0.00 0.03
10:52 pm 22:52 Cloudy 65 18.3 60 15.6 84 84 S 3 6 29.80 1009 10 16 0.00 0.00
11:52 pm 23:52 Cloudy 64 17.8 60 15.6 87 87 S 8 13 29.80 1009 10 16 0.00 0.00

Powered by AerisWeather